[[{"header":{"parameterUnit":"m.s-1","parameterCategory":1,"la1":30.2991,"la2":30.254,"lo1":-89.0895,"lo2":-89.0444,"dy":0.0017,"dx":0.0017,"nx":28,"ny":28,"refTime":"2024-06-12T21:00:00:Z","depth":0,"parameterNumber":2,"parameterNumberName":"U-component_of_WINDS"},"data":[0,0,0,0,0,0,0,0,0,0,0,0,0,0,0,0,0,0,0,0,0,0,0,0,0,0,0,0,0,0,0,0,0,0,0,0,0,0,0,0,0,0,0,0,0,0,0,0,0,0,0,0,0,0,0,0,0,0,-1.0209,-1.021,0,-1.027,-1.0271,-1.0271,-1.0266,-1.0265,-1.0264,-1.0263,-1.0324,-1.0326,-1.0329,0,0,0,0,0,0,0,0,0,0,0,0,0,-1.0084,-1.0086,-1.0209,-1.021,-1.021,-1.027,-1.0271,-1.0272,-1.0266,-1.0265,-1.0264,-1.0263,-1.0323,-1.0326,-1.0329,0,0,0,0,0,0,0,0,0,0,0,0,0,-1.0141,-1.0087,-1.0209,-1.0215,-1.0216,-1.027,-1.0271,-1.0272,-1.0266,-1.0265,-1.0263,-1.0262,-1.0322,-1.0326,-1.0329,-1.0381,0,0,-1.0341,-1.0342,0,0,0,0,0,0,0,0,-1.0138,-1.0146,-1.0213,-1.0214,-1.0216,-1.0259,-1.0249,-1.0308,-1.0267,-1.0247,-1.0263,-1.0261,-1.0303,-1.0309,-1.0323,-1.0383,-1.0386,-1.0341,-1.0343,-1.0345,-1.0346,0,0,0,0,0,0,0,-1.0134,-1.0143,-1.0233,-1.0214,-1.0216,-1.0213,-1.022,-1.026,-1.0282,-1.0249,-1.0248,-1.0256,-1.0304,-1.0319,-1.0324,-1.0387,-1.0341,-1.0344,-1.0347,-1.0348,-1.049,-1.0491,0,0,0,0,0,0,-1.0129,-1.014,-1.0231,-1.0235,-1.0173,-1.0217,-1.0224,-1.0246,-1.0282,-1.0286,-1.0257,-1.0255,-1.0314,-1.032,-1.0327,-1.0387,-1.0345,-1.0349,-1.0351,-1.0488,-1.049,-1.0492,0,0,0,0,0,0,-1.0126,-1.0137,-1.0229,-1.0187,-1.0199,-1.0221,-1.0246,-1.0248,-1.0264,-1.0288,-1.0292,-1.0269,-1.0313,-1.0321,-1.0367,-1.0389,-1.035,-1.0354,-1.0486,-1.0489,-1.0491,-1.051,0,0,0,0,0,0,-1.0123,-1.0136,-1.0157,-1.0188,-1.0201,-1.0269,-1.0247,-1.0251,-1.0271,-1.0269,-1.03,-1.0304,-1.0312,-1.0361,-1.037,-1.0394,-1.0357,-1.0484,-1.0487,-1.049,-1.0507,-1.0512,-1.0517,0,0,0,0,0,-1.0118,-1.016,-1.0158,-1.0169,-1.0227,-1.027,-1.0278,-1.0287,-1.0273,-1.0293,-1.0308,-1.0303,-1.0385,-1.0366,-1.0376,-1.0401,-1.0483,-1.0487,-1.049,-1.0505,-1.0511,-1.0517,0,0,0,0,0,0,-1.013,-1.0164,-1.0162,-1.0215,-1.024,-1.0269,-1.0295,-1.0293,-1.0322,-1.032,-1.0329,-1.0336,-1.0381,-1.0396,-1.0374,-1.0451,-1.0432,-1.0438,-1.044,-1.0446,-1.0451,-1.0446,-1.036,0,0,0,0,0,-1.0139,-1.0172,-1.0199,-1.0243,-1.0256,-1.0273,-1.0292,-1.0297,-1.0323,-1.0333,-1.0352,-1.0376,-1.0407,-1.0428,-1.0458,-1.0509,-1.0515,-1.0531,-1.0536,-1.054,-1.0544,-1.057,-1.0577,-1.0503,-1.0503,-1.0503,0,0,-1.0158,-1.018,-1.0201,-1.0246,-1.0266,-1.0299,-1.0282,-1.0318,-1.0342,-1.0338,-1.0382,-1.0397,-1.0424,-1.0473,-1.0495,-1.0486,-1.0566,-1.0544,-1.0547,-1.0549,-1.0575,-1.0582,-1.0588,-1.0505,-1.0505,-1.0504,0,0,-1.0208,-1.0229,-1.0267,-1.0287,-1.0317,-1.0328,-1.0337,-1.0367,-1.0376,-1.042,-1.0418,-1.0446,-1.05,-1.0519,-1.0536,-1.0592,-1.0588,-1.0601,-1.0626,-1.0652,-1.0657,-1.0663,-1.0681,-1.0688,-1.0606,-1.0606,-1.0606,0,-1.0228,-1.0278,-1.0287,-1.0323,-1.0342,-1.0341,-1.0378,-1.0397,-1.0435,-1.0448,-1.0438,-1.0504,-1.0523,-1.0574,-1.0588,-1.0602,-1.0611,-1.0598,-1.0656,-1.0661,-1.0666,-1.0684,-1.0691,-1.0607,-1.0607,-1.0607,-1.0607,0,-1.0299,-1.0334,-1.0361,-1.0397,-1.042,-1.0457,-1.047,-1.0491,-1.0494,-1.0505,-1.0549,-1.0571,-1.0605,-1.0618,-1.062,-1.0669,-1.0662,-1.0654,-1.0635,-1.0675,-1.0691,-1.0698,-1.0609,-1.0609,-1.0608,-1.0608,0,0,-1.036,-1.04,-1.041,-1.0426,-1.0458,-1.0484,-1.052,-1.0553,-1.057,-1.0596,-1.0625,-1.067,-1.0662,-1.0681,-1.0686,-1.0708,-1.0749,-1.0697,-1.0697,-1.0704,-1.0802,-1.0807,-1.0815,-1.0746,-1.0748,-1.0749,-1.0799,0,-1.0412,-1.0476,-1.0485,-1.0541,-1.0572,-1.057,-1.0601,-1.0623,-1.0634,-1.0661,-1.0673,-1.0704,-1.0692,-1.0703,-1.0726,-1.0739,-1.0768,-1.0736,-1.0772,-1.0773,-1.0764,-1.0824,-1.083,-1.0876,-1.0805,-1.0807,-1.0807,0,-1.0483,-1.0511,-1.057,-1.0596,-1.0609,-1.0637,-1.0667,-1.0693,-1.0718,-1.0724,-1.0745,-1.0746,-1.0781,-1.0761,-1.0809,-1.0786,-1.0801,-1.081,-1.0812,-1.0815,-1.0792,-1.0827,-1.0891,-1.0898,-1.0818,-1.0817,-1.0816,0,-1.0519,-1.0571,-1.0613,-1.0627,-1.0659,-1.0678,-1.0692,-1.0715,-1.0734,-1.076,-1.0772,-1.0801,-1.0817,-1.084,-1.0848,-1.0833,-1.0894,-1.0875,-1.0899,-1.0899,-1.0912,-1.0911,-1.0978,-1.0924,-1.0924,-1.0923,-1.0923,0,-1.0577,-1.0613,-1.063,-1.0655,-1.0695,-1.0703,-1.0742,-1.0755,-1.0775,-1.0802,-1.0802,-1.0827,-1.0838,-1.0864,-1.0871,-1.0908,-1.0915,-1.092,-1.0922,-1.092,-1.0919,-1.0929,-1.0926,-1.0925,-1.0925,-1.0924,-1.0924,0,-1.0624,-1.0638,-1.0682,-1.0709,-1.0716,-1.0744,-1.0766,-1.079,-1.08,-1.0834,-1.0843,-1.0859,-1.089,-1.09,-1.0938,-1.0942,-1.0985,-1.0984,-1.0977,-1.0977,-1.0999,-1.0997,-1.1075,-1.1085,-1.1025,-1.1025,-1.1026,0,-1.066,-1.0687,-1.0717,-1.0735,-1.075,-1.0779,-1.0798,-1.0807,-1.0826,-1.0855,-1.0875,-1.0906,-1.0931,-1.0979,-1.0994,-1.1022,-1.102,-1.1046,-1.1025,-1.1021,-1.1019,-1.1017,-1.1019,-1.105,-1.105,-1.1051,-1.1051,0,-1.0721,-1.0726,-1.0754,-1.0783,-1.0806,-1.0829,-1.0852,-1.0867,-1.0879,-1.09,-1.0932,-1.0951,-1.0988,-1.1018,-1.1046,-1.1059,-1.1057,-1.1058,-1.1065,-1.1063,-1.1057,-1.1059,-1.0986,-1.1056,-1.1056,-1.1055,-1.1055,-1.1055,-1.0763,-1.0786,-1.081,-1.084,-1.0858,-1.0879,-1.0902,-1.0916,-1.0942,-1.0974,-1.0977,-1.101,-1.1032,-1.107,-1.1084,-1.1109,-1.1102,-1.1112,-1.1115,-1.1117,-1.1118,-1.1054,-1.1115,-1.1114,-1.1114,-1.1114,-1.1114,0,-1.0823,-1.0837,-1.0865,-1.0897,-1.092,-1.0917,-1.0941,-1.096,-1.099,-1.1011,-1.1035,-1.107,-1.1098,-1.1114,-1.1142,-1.1159,-1.1158,-1.1166,-1.1164,-1.1167,-1.1123,-1.1114,-1.1166,-1.1166,-1.1166,-1.1166,-1.1166,-1.1166,-1.0856,-1.0896,-1.0903,-1.095,-1.0964,-1.0998,-1.1012,-1.103,-1.1047,-1.1086,-1.1109,-1.112,-1.1138,-1.1167,-1.1192,-1.1196,-1.1206,-1.1214,-1.1217,-1.1175,-1.117,-1.1165,-1.1156,-1.1216,-1.1216,-1.1258,-1.1258,-1.1258]},{"header":{"parameterUnit":"m.s-1","parameterCategory":1,"la1":30.2991,"la2":30.254,"lo1":-89.0895,"lo2":-89.0444,"dy":0.0017,"dx":0.0017,"nx":28,"ny":28,"refTime":"2024-06-12T21:00:00:Z","depth":0,"parameterNumber":3,"parameterNumberName":"V-component_of_WINDS"},"data":[0,0,0,0,0,0,0,0,0,0,0,0,0,0,0,0,0,0,0,0,0,0,0,0,0,0,0,0,0,0,0,0,0,0,0,0,0,0,0,0,0,0,0,0,0,0,0,0,0,0,0,0,0,0,0,0,0,0,-2.5871,-2.5871,0,-2.5893,-2.5894,-2.5894,-2.5875,-2.5875,-2.5874,-2.5873,-2.5895,-2.5896,-2.5897,0,0,0,0,0,0,0,0,0,0,0,0,0,-2.5809,-2.581,-2.5871,-2.5871,-2.5871,-2.5893,-2.5894,-2.5894,-2.5875,-2.5875,-2.5874,-2.5873,-2.5894,-2.5896,-2.5897,0,0,0,0,0,0,0,0,0,0,0,0,0,-2.5834,-2.581,-2.5871,-2.5865,-2.5864,-2.5893,-2.5894,-2.5894,-2.5876,-2.5874,-2.5873,-2.5872,-2.5894,-2.5895,-2.5897,-2.5933,0,0,-2.5903,-2.5904,0,0,0,0,0,0,0,0,-2.5832,-2.5836,-2.5865,-2.5865,-2.5865,-2.588,-2.588,-2.5907,-2.5876,-2.5871,-2.5873,-2.5872,-2.5891,-2.5893,-2.59,-2.5934,-2.5935,-2.5904,-2.5905,-2.5906,-2.5906,0,0,0,0,0,0,0,-2.5831,-2.5835,-2.588,-2.5866,-2.5866,-2.586,-2.5862,-2.5885,-2.5887,-2.5872,-2.587,-2.5873,-2.589,-2.5898,-2.59,-2.5935,-2.5903,-2.5905,-2.5906,-2.5907,-2.5997,-2.5998,0,0,0,0,0,0,-2.583,-2.5834,-2.5879,-2.588,-2.5846,-2.5862,-2.5865,-2.5877,-2.5887,-2.5887,-2.5874,-2.5872,-2.5895,-2.5898,-2.5901,-2.5941,-2.5906,-2.5907,-2.5908,-2.5996,-2.5997,-2.5999,0,0,0,0,0,0,-2.5829,-2.5834,-2.5878,-2.5857,-2.5862,-2.5864,-2.5878,-2.5878,-2.5885,-2.5889,-2.5889,-2.5882,-2.5894,-2.5898,-2.5925,-2.5942,-2.5908,-2.591,-2.5994,-2.5996,-2.5998,-2.6023,0,0,0,0,0,0,-2.5827,-2.5834,-2.5848,-2.5857,-2.5863,-2.5902,-2.5879,-2.5879,-2.5889,-2.5886,-2.5896,-2.5896,-2.5893,-2.5922,-2.5926,-2.5944,-2.5912,-2.5993,-2.5995,-2.5997,-2.6021,-2.6026,-2.603,0,0,0,0,0,-2.5825,-2.5854,-2.5849,-2.5854,-2.5881,-2.5904,-2.5907,-2.5904,-2.589,-2.5904,-2.5906,-2.5896,-2.5939,-2.5925,-2.593,-2.5948,-2.5992,-2.5995,-2.5997,-2.6019,-2.6025,-2.603,0,0,0,0,0,0,-2.5847,-2.5855,-2.5849,-2.5883,-2.5893,-2.59,-2.5918,-2.591,-2.5924,-2.5921,-2.5916,-2.5918,-2.5945,-2.595,-2.5933,-2.5982,-2.5963,-2.5967,-2.5978,-2.5983,-2.5988,-2.5986,-2.5913,0,0,0,0,0,-2.5856,-2.5874,-2.588,-2.5909,-2.5914,-2.5915,-2.5925,-2.5921,-2.5931,-2.5935,-2.5939,-2.5948,-2.5964,-2.5974,-2.5989,-2.6022,-2.6022,-2.6037,-2.6041,-2.6045,-2.6048,-2.6064,-2.6069,-2.6008,-2.6008,-2.6008,0,0,-2.5874,-2.5881,-2.5893,-2.5914,-2.5921,-2.5939,-2.5919,-2.5939,-2.5952,-2.5938,-2.5963,-2.5966,-2.5976,-2.6006,-2.6019,-2.601,-2.6065,-2.6048,-2.6051,-2.6052,-2.6067,-2.6073,-2.6078,-2.601,-2.6009,-2.6009,0,0,-2.5916,-2.5924,-2.5948,-2.5955,-2.5966,-2.5967,-2.5972,-2.5981,-2.5983,-2.6008,-2.5997,-2.6012,-2.6039,-2.6046,-2.6053,-2.6096,-2.6087,-2.6101,-2.6124,-2.614,-2.6145,-2.6149,-2.6163,-2.6168,-2.6105,-2.6105,-2.6105,0,-2.5937,-2.5965,-2.5961,-2.5982,-2.5991,-2.5979,-2.6002,-2.6009,-2.6024,-2.603,-2.602,-2.6053,-2.6059,-2.6089,-2.6099,-2.6106,-2.6111,-2.61,-2.6144,-2.6149,-2.6153,-2.6166,-2.6171,-2.6106,-2.6106,-2.6106,-2.6106,0,-2.5989,-2.6008,-2.6026,-2.6041,-2.6052,-2.6074,-2.6072,-2.6084,-2.6079,-2.608,-2.6105,-2.6111,-2.6126,-2.6133,-2.6129,-2.6162,-2.6156,-2.6145,-2.6127,-2.616,-2.6172,-2.6177,-2.6109,-2.6108,-2.6107,-2.6107,0,0,-2.6046,-2.6058,-2.6064,-2.607,-2.6081,-2.6095,-2.6115,-2.613,-2.6139,-2.615,-2.6166,-2.6189,-2.6178,-2.6186,-2.6183,-2.6197,-2.6228,-2.6184,-2.6184,-2.619,-2.6263,-2.627,-2.6276,-2.6222,-2.6223,-2.6224,-2.6262,0,-2.6087,-2.6124,-2.6121,-2.6155,-2.6171,-2.616,-2.6177,-2.6185,-2.6186,-2.62,-2.6201,-2.6216,-2.6203,-2.6207,-2.622,-2.6222,-2.6242,-2.6219,-2.6236,-2.6237,-2.6232,-2.6282,-2.629,-2.6325,-2.6266,-2.6267,-2.6268,0,-2.6141,-2.6153,-2.6188,-2.6195,-2.6201,-2.6218,-2.623,-2.6243,-2.6251,-2.6251,-2.6259,-2.6253,-2.6272,-2.6254,-2.628,-2.6264,-2.6271,-2.6272,-2.6274,-2.6274,-2.6253,-2.6283,-2.6336,-2.6341,-2.6276,-2.6275,-2.6274,0,-2.6176,-2.6201,-2.6225,-2.6231,-2.624,-2.6251,-2.6255,-2.6262,-2.627,-2.6281,-2.6286,-2.6299,-2.6306,-2.6315,-2.6312,-2.6299,-2.6338,-2.632,-2.6337,-2.6337,-2.6345,-2.6344,-2.6399,-2.6352,-2.6352,-2.6351,-2.6351,0,-2.6222,-2.6244,-2.6241,-2.6256,-2.6279,-2.6275,-2.6298,-2.6301,-2.6307,-2.6321,-2.6312,-2.6325,-2.6321,-2.6334,-2.6331,-2.6352,-2.6356,-2.6355,-2.6354,-2.6355,-2.6355,-2.6358,-2.6355,-2.6353,-2.6353,-2.6352,-2.6352,0,-2.6265,-2.6265,-2.629,-2.6296,-2.6298,-2.6315,-2.6319,-2.6332,-2.6333,-2.635,-2.6354,-2.6354,-2.6369,-2.6367,-2.6383,-2.6381,-2.6407,-2.6403,-2.6404,-2.6402,-2.6419,-2.6417,-2.6477,-2.6484,-2.6434,-2.6434,-2.6435,0,-2.6294,-2.631,-2.6317,-2.6326,-2.6331,-2.6346,-2.6354,-2.635,-2.6359,-2.6369,-2.638,-2.6394,-2.6404,-2.6428,-2.6429,-2.6441,-2.6436,-2.6457,-2.6438,-2.6438,-2.6435,-2.6433,-2.6434,-2.646,-2.646,-2.6461,-2.6461,0,-2.6344,-2.6342,-2.6355,-2.6367,-2.6377,-2.6387,-2.6395,-2.6403,-2.6399,-2.641,-2.6424,-2.6432,-2.6448,-2.6461,-2.6472,-2.6476,-2.6467,-2.6467,-2.6472,-2.6472,-2.6471,-2.647,-2.6412,-2.6466,-2.6465,-2.6465,-2.6465,-2.6464,-2.6379,-2.6392,-2.6399,-2.6413,-2.6419,-2.6427,-2.6439,-2.644,-2.6452,-2.6465,-2.6462,-2.6478,-2.6484,-2.6498,-2.6503,-2.6514,-2.6507,-2.6514,-2.6515,-2.6516,-2.6517,-2.647,-2.6517,-2.6516,-2.6516,-2.6516,-2.6516,0,-2.6427,-2.6431,-2.6444,-2.6455,-2.6466,-2.6458,-2.6466,-2.6475,-2.6489,-2.6496,-2.6507,-2.6522,-2.6535,-2.6537,-2.6548,-2.6557,-2.6553,-2.656,-2.6558,-2.6559,-2.6524,-2.6519,-2.6563,-2.6563,-2.6563,-2.6563,-2.6563,-2.6562,-2.6453,-2.6474,-2.6474,-2.6497,-2.65,-2.6516,-2.6521,-2.6528,-2.6533,-2.6551,-2.6561,-2.6563,-2.6567,-2.6578,-2.6589,-2.6589,-2.6593,-2.6601,-2.6599,-2.6566,-2.6562,-2.6557,-2.6552,-2.6602,-2.6602,-2.6632,-2.6633,-2.6633]}]]